Location: Pasadena, ca
(34.1243°N, 118.1037°W)
Time: 16:25:28
(UTC-08:00)

N. Korean satellite - Pass Details

Date: 09 October 2017
Orbit: 461 x 513 km, 97.2° (Epoch: 14 December)

Event Time Altitude Azimuth Distance (km) Brightness Sun altitude
Rises 19:55:44 0° 205° (SSW) 2,574 10.5 -19.5°
Reaches altitude 10° 19:58:34 10° 230° (SW) 1,685 9.9 -20.1°
Maximum altitude 20:00:40 15° 266° (W) 1,408 9.9 -20.5°
Drops below altitude 10° 20:02:46 10° 301° (WNW) 1,675 10.2 -21.0°
Sets 20:05:34 0° 326° (NW) 2,547 10.8 -21.5°
